#timestamp,LO_Frequency,Hit,StdDev 
1591372815.0,286047001.5,N
1591372815.9,286047001.5,N
1591372835.8,286046999.7,N
1591372855.6,286047004.2,N
1591372875.5,286047004.0,N
1591372895.3,286047000.2,N
1591372915.1,286047000.2,N
1591372935.9,286047003.8,N
1591372955.7,286047001.6,N
1591372975.5,286047002.2,N
1591372995.4,286047002.5,N
1591373015.2,286047002.5,N
1591373035.1,286046999.8,N
1591373036.0,286046999.8,N
1591373055.8,286047000.6,N
1591373075.6,286046998.9,N
1591373095.5,286046998.4,N
1591373115.3,286047000.6,N
1591373135.1,286046998.5,N
1591373155.9,286047001.1,N
1591373175.7,286047002.2,N
1591373195.6,286047000.0,N
1591373215.4,286047000.0,N
1591373235.2,286047000.3,N
1591373255.1,286047001.9,N
1591373256.0,286047001.9,N
1591373275.8,286046999.8,N
1591373295.6,286047000.6,N
1591373315.5,286047002.8,N
1591373335.3,286047000.1,N
1591373355.2,286047002.3,N
1591373375.9,286047002.2,N
1591373395.7,286047002.2,N
1591373415.6,286047001.3,N
1591373435.4,286047002.3,N
1591373455.3,286047002.6,N
1591373475.1,286047001.6,N
1591373476.0,286047001.6,N
1591373495.8,286047005.8,Y
1591373515.7,286047003.7,P
1591373535.5,286047001.9,N
1591373555.3,286047002.6,N
1591373575.2,286047004.4,Y
1591373595.0,286047002.6,P
1591373595.9,286047002.6,P
1591373615.8,286047001.1,P
1591373635.6,286046998.1,Y
1591373655.4,286046999.3,P
1591373675.3,286046996.9,N
1591373695.1,286047001.1,N
1591373715.8,286047000.7,N
1591373735.7,286046998.6,N
1591373755.5,286046998.8,N
1591373775.4,286047000.2,N
1591373795.2,286046998.6,N
1591373815.0,286046998.6,N
1591373815.9,286046998.6,N
1591373835.8,286047000.9,N
1591373855.6,286047001.1,N
1591373875.4,286047000.5,N
1591373895.3,286047000.0,N
1591373915.1,286047001.6,N
1591373935.9,286047001.4,N
1591373955.7,286047002.0,N
1591373975.5,286046999.7,N
1591373995.4,286047000.6,N
1591374015.2,286047000.7,N
1591374035.0,286047002.8,N
1591374035.9,286047002.8,N
1591374055.8,286047002.3,N
1591374075.6,286046999.8,N
1591374095.5,286047001.2,N
1591374115.3,286046999.0,N
1591374135.1,286046999.5,N
1591374155.9,286046999.6,N
1591374175.7,286046996.8,N
1591374195.5,286046997.2,N
1591374215.4,286046995.1,Y
1591374235.2,286046997.1,P
1591374255.1,286046994.9,P
1591374256.0,286046994.9,N
1591374275.8,286046997.7,N
1591374295.6,286046998.0,N
1591374315.5,286046997.3,N
1591374335.3,286046998.4,N
1591374355.1,286047001.2,N
1591374375.9,286046998.1,N
1591374395.7,286046998.2,N
1591374415.6,286046999.7,N
1591374435.4,286047000.5,N
1591374455.2,286047000.9,N
1591374475.1,286047000.6,N
1591374476.0,286047000.6,N
1591374495.8,286047001.0,N
1591374515.6,286046998.9,N
1591374535.5,286046996.5,N
1591374555.3,286046996.9,N
1591374575.2,286046997.5,N
1591374595.9,286046997.5,N
1591374615.7,286046998.4,N
1591374635.6,286046996.8,N
1591374655.4,286046997.9,N
1591374675.2,286046996.8,N
1591374695.1,286046997.3,N
1591374696.0,286046997.3,N
1591374715.8,286046995.0,N
1591374735.7,286046997.2,N
1591374755.5,286046995.8,N
1591374775.3,286046996.6,N
1591374795.2,286046998.8,N
1591374815.0,286046999.3,N
1591374815.9,286046999.3,N
1591374835.7,286047002.7,N
1591374855.6,286047000.4,N
1591374875.4,286046999.5,N
1591374895.3,286046997.0,N
1591374915.1,286046996.8,N
1591374935.8,286046997.1,N
1591374955.7,286046997.0,N
1591374975.5,286046996.6,N
1591374995.4,286046998.7,N
1591375015.2,286046998.4,N
1591375035.0,286046998.4,N
1591375035.9,286046998.4,N
1591375055.8,286046998.2,N
1591375075.6,286047000.4,N
1591375095.4,286047000.6,N
1591375115.3,286046998.9,N
1591375135.1,286046997.7,N
1591375155.9,286046997.1,N
1591375175.7,286046998.0,N
1591375195.5,286046997.7,N
1591375215.4,286046996.9,N
1591375235.2,286046997.1,N
1591375255.0,286046998.6,N
1591375255.9,286046998.6,N
1591375275.8,286047001.1,N
1591375295.6,286046998.9,N
1591375315.5,286046998.4,N
1591375335.3,286046999.1,N
1591375355.1,286046998.7,N
1591375375.9,286047000.8,N
1591375395.7,286047000.4,N
1591375415.5,286046998.1,N
1591375435.4,286047000.9,N
1591375455.2,286047000.6,N
1591375475.1,286047002.0,N
1591375476.0,286047002.0,N
1591375495.8,286046999.7,N
1591375515.6,286046999.7,N
1591375535.5,286047001.8,N
1591375555.3,286047003.7,N
1591375575.1,286047000.2,N
1591375595.9,286047002.5,N
1591375615.7,286047001.4,N
1591375635.5,286047002.8,N
1591375655.4,286047000.3,N
1591375675.2,286047000.3,N
1591375695.1,286047000.2,N
1591375696.0,286047000.2,N
1591375715.8,286047002.6,N
1591375735.6,286047002.6,N
1591375755.5,286046999.7,N
1591375775.3,286047002.3,N
1591375795.1,286047002.5,N
1591375815.9,286047002.1,N
1591375835.7,286046999.9,N
1591375855.6,286047002.0,N
1591375875.4,286047002.7,N
1591375895.2,286047002.8,N
1591375915.1,286047000.0,N
1591375916.0,286047000.0,N
1591375935.8,286047000.5,N
1591375955.7,286046999.3,N
1591375975.5,286046996.8,N
1591375995.3,286046999.6,N
1591376015.2,286046999.4,N
1591376035.9,286046999.6,N
1591376055.7,286046998.0,N
1591376075.6,286046995.9,N
1591376095.4,286046993.3,Y
1591376115.3,286046994.5,P
1591376135.1,286046994.0,N
1591376136.0,286046994.0,N
1591376155.8,286046993.6,N
1591376175.7,286046994.8,N
1591376195.5,286046994.1,N
1591376215.3,286046993.5,N
1591376235.2,286046991.9,Y
1591376255.0,286046998.2,P
1591376255.9,286046998.2,N
1591376275.8,286047002.3,N
1591376295.6,286046999.7,N
1591376315.4,286047001.1,N
1591376335.3,286046998.1,N
1591376355.1,286046998.8,N
1591376375.8,286046998.4,N
1591376395.7,286046998.1,N
